Location: Borowce
(50.8255°N, 19.6209°E)
Time: 23:00:25
(UTC+00:00)

CENTAUR R/B - Pass Details

Date: 19 May 2025
Orbit: 645 x 1537 km, 63.4° (Epoch: 16 June)

Event Time Altitude Azimuth Distance (km) Brightness Sun altitude
Rises 23:14:11 0° 315° (NW) 4,159 6.3 -18.7°
Reaches altitude 10° 23:16:50 10° 312° (NW) 3,300 5.7 -18.7°
Maximum altitude 23:24:53 59° 236° (WSW) 1,644 3.4 -18.4°
Enters shadow 23:31:28 20° 166° (SSE) 2,936 4.5 -18.2°
